This demonstration page uses our WeatherBlox Daily Observations layout. Learn more.

Left ArrowRight Arrow

34.16533, -84.80231

Hourly Observations for July 3, 2017

Temp ( °F °C ) Dew Point ( °F °C ) Humidity (%) Winds ( mph kmh ) Pressure ( in mb ) Visibility ( mi km ) Precip ( " mm )
12:53 am 00:53 Cloudy 72 22.2 72 22.2 100 100 Calm 30.08 1019 10 16 0.00 0.00
1:53 am 01:53 Cloudy 72 22.2 72 22.2 100 100 Calm 30.07 1018 10 16 0.00 0.00
2:17 am 02:17 Cloudy 72 22.2 72 22.2 100 100 Calm 30.09 1019 10 16 0.00 0.00
2:53 am 02:53 Cloudy 71 21.7 71 21.7 100 100 Calm 30.06 1018 10 16 0.00 0.00
3:19 am 03:19 Cloudy 71 21.7 71 21.7 100 100 Calm 30.06 1018 10 16 0.00 0.00
3:53 am 03:53 Cloudy 71 21.7 71 21.7 100 100 E 3 6 30.04 1017 10 16 0.00 0.00
4:32 am 04:32 Cloudy 72 22.2 72 22.2 100 100 NNE 3 6 30.06 1018 10 16 0.00 0.00
4:53 am 04:53 Cloudy 72 22.2 72 22.2 100 100 Calm 30.04 1017 10 16 0.00 0.00
5:53 am 05:53 Cloudy 71 21.7 71 21.7 100 100 Calm 30.04 1017 10 16 0.00 0.00
6:53 am 06:53 Mostly Cloudy 71 21.7 71 21.7 100 100 Calm 30.05 1018 9 14 0.00 0.00
7:05 am 07:05 Mostly Cloudy 71 21.7 71 21.7 100 100 Calm 30.06 1018 9 14 0.00 0.00
7:13 am 07:13 Cloudy 71 21.7 71 21.7 100 100 Calm 30.06 1018 9 14 0.00 0.00
7:28 am 07:28 Cloudy 71 21.7 71 21.7 100 100 Calm 30.06 1018 9 14 0.00 0.00
7:53 am 07:53 Cloudy with Light Rain 72 22.2 72 22.2 100 100 Calm 30.08 1019 4 6 0.01 0.25
8:02 am 08:02 Cloudy with Rain 72 22.2 72 22.2 100 100 Calm 30.09 1019 3 4 0.02 0.51
8:10 am 08:10 Cloudy with Rain 71 21.7 71 21.7 100 100 Calm 30.09 1019 1 2 0.08 2.03
8:16 am 08:16 Cloudy with Rain 71 21.7 71 21.7 100 100 Calm 30.09 1019 2 3 0.10 2.54
8:28 am 08:28 Cloudy with Light Rain 71 21.7 71 21.7 100 100 Calm 30.09 1019 5 8 0.11 2.79
8:40 am 08:40 Cloudy 72 22.2 72 22.2 100 100 Calm 30.09 1019 9 14 0.11 2.79
8:53 am 08:53 Cloudy 72 22.2 72 22.2 100 100 Calm 30.09 1019 10 16 0.11 2.79
9:03 am 09:03 Cloudy 72 22.2 72 22.2 100 100 Calm 30.09 1019 10 16 0.00 0.00
9:53 am 09:53 Cloudy 73 22.8 73 22.8 100 100 Calm 30.09 1019 10 16 0.00 0.00
10:01 am 10:01 Cloudy 75 23.9 75 23.9 100 100 Calm 30.09 1019 10 16 0.00 0.00
10:44 am 10:44 Cloudy 74 23.3 74 23.3 100 100 Calm 30.09 1019 10 16 0.00 0.00
10:46 am 10:46 Cloudy 74 23.3 74 23.3 100 100 Calm 30.09 1019 10 16 0.00 0.00
10:53 am 10:53 Cloudy 75 23.9 74 23.3 96 96 Calm 30.09 1019 10 16 0.00 0.00
11:53 am 11:53 Mostly Cloudy 78 25.6 73 22.8 85 85 VRB 3 6 30.11 1020 10 16 0.00 0.00
12:53 pm 12:53 Partly Cloudy 82 27.8 73 22.8 74 74 VRB 5 7 30.09 1019 10 16 0.00 0.00
1:53 pm 13:53 Mostly Sunny 85 29.4 74 23.3 70 70 VRB 3 6 30.07 1018 10 16 0.00 0.00
2:53 pm 14:53 Partly Cloudy 84 28.9 73 22.8 70 70 VRB 3 6 30.05 1018 10 16 0.00 0.00
3:53 pm 15:53 Sunny 85 29.4 74 23.3 70 70 Calm 30.03 1017 10 16 0.00 0.00
4:53 pm 16:53 Mostly Cloudy 86 30 73 22.8 65 65 VRB 3 6 30.02 1017 10 16 0.00 0.00
5:53 pm 17:53 Partly Cloudy 85 29.4 72 22.2 65 65 Calm 30.02 1017 10 16 0.00 0.00
6:53 pm 18:53 Sunny 86 30 71 21.7 61 61 Calm 30.02 1017 10 16 0.00 0.00
7:53 pm 19:53 Mostly Sunny 82 27.8 72 22.2 72 72 Calm 30.04 1017 10 16 0.00 0.00
8:53 pm 20:53 Mostly Sunny 78 25.6 71 21.7 79 79 Calm 30.02 1017 10 16 0.00 0.00
9:53 pm 21:53 Clear 76 24.4 71 21.7 85 85 Calm 30.05 1018 10 16 0.00 0.00
10:53 pm 22:53 Clear 73 22.8 71 21.7 94 94 Calm 30.07 1018 10 16 0.00 0.00
11:53 pm 23:53 Clear 71 21.7 70 21.1 96 96 Calm 30.04 1017 10 16 0.00 0.00

Powered by AerisWeather